KZR118 UAAA-UCFM

Flight info

Callsign KZR118
Flight time 0h 27m
Altitude 18000
Route EKLAT1B EKLAT Z370 BINRI L143 UMLOD LUGOS1
Aircraft A321/M-SDE3FGHIRWY/LB1

Departure

Time 2026-05-05 09:05
Airport Almaty International Airport (UAAA)

Arrival

Time 2026-05-05 09:33
Airport Manas International Airport (UCFM)
Time Latitude Longitude Altitude Speed Heading
2026-05-05 08:20 43.34917 77.01346 2224 ft 0 kts 246°
2026-05-05 08:54 43.34918 77.01349 2226 ft 3 kts 246°
2026-05-05 08:54 43.34930 77.01382 2221 ft 4 kts 239°
2026-05-05 08:54 43.34945 77.01412 2221 ft 4 kts 228°
2026-05-05 08:54 43.34964 77.01436 2225 ft 4 kts 201°
2026-05-05 08:55 43.34983 77.01440 2222 ft 1 kts 156°
2026-05-05 08:55 43.34983 77.01439 2222 ft 0 kts 156°
2026-05-05 08:59 43.34983 77.01440 2222 ft 0 kts 156°
2026-05-05 08:59 43.34976 77.01444 2223 ft 2 kts 156°
2026-05-05 08:59 43.34950 77.01460 2222 ft 9 kts 156°
2026-05-05 08:59 43.34892 77.01495 2222 ft 6 kts 158°
2026-05-05 09:00 43.34841 77.01493 2224 ft 9 kts 193°
2026-05-05 09:00 43.34774 77.01469 2224 ft 10 kts 195°
2026-05-05 09:00 43.34710 77.01446 2223 ft 3 kts 195°
2026-05-05 09:00 43.34685 77.01443 2221 ft 5 kts 174°
2026-05-05 09:01 43.34648 77.01459 2224 ft 6 kts 165°
2026-05-05 09:01 43.34601 77.01469 2224 ft 7 kts 173°
2026-05-05 09:01 43.34550 77.01492 2226 ft 8 kts 155°
2026-05-05 09:01 43.34494 77.01527 2226 ft 9 kts 155°
2026-05-05 09:02 43.34432 77.01566 2226 ft 10 kts 155°
2026-05-05 09:02 43.34387 77.01594 2225 ft 11 kts 155°
2026-05-05 09:02 43.34316 77.01635 2225 ft 11 kts 157°
2026-05-05 09:02 43.34254 77.01672 2227 ft 7 kts 156°
2026-05-05 09:03 43.34213 77.01697 2229 ft 5 kts 156°
2026-05-05 09:03 43.34188 77.01714 2232 ft 3 kts 152°
2026-05-05 09:03 43.34150 77.01761 2232 ft 6 kts 110°
2026-05-05 09:03 43.34166 77.01813 2232 ft 7 kts 55°
2026-05-05 09:04 43.34185 77.01851 2232 ft 7 kts 55°
2026-05-05 09:04 43.34218 77.01917 2232 ft 11 kts 56°
2026-05-05 09:04 43.34384 77.02255 2233 ft 78 kts 56°
2026-05-05 09:04 43.34811 77.03116 2231 ft 138 kts 56°
2026-05-05 09:05 43.35689 77.04914 2310 ft 192 kts 56°
2026-05-05 09:05 43.36194 77.05942 2650 ft 198 kts 56°
2026-05-05 09:05 43.36985 77.07512 3359 ft 202 kts 54°
2026-05-05 09:05 43.37822 77.09109 3738 ft 214 kts 53°
2026-05-05 09:06 43.38746 77.10862 3938 ft 239 kts 54°
2026-05-05 09:06 43.39759 77.12790 4333 ft 255 kts 54°
2026-05-05 09:06 43.40804 77.14792 5007 ft 259 kts 53°
2026-05-05 09:06 43.42112 77.16526 5522 ft 269 kts 26°
2026-05-05 09:07 43.43453 77.17022 5945 ft 273 kts
2026-05-05 09:07 43.45056 77.16602 6489 ft 276 kts 338°
2026-05-05 09:07 43.46793 77.15430 7134 ft 280 kts 330°
2026-05-05 09:08 43.48488 77.14072 7781 ft 283 kts 329°
2026-05-05 09:08 43.50173 77.12711 8412 ft 287 kts 329°
2026-05-05 09:08 43.51833 77.11143 9045 ft 291 kts 319°
2026-05-05 09:08 43.53217 77.09084 9677 ft 295 kts 304°
2026-05-05 09:09 43.54112 77.06527 10257 ft 299 kts 284°
2026-05-05 09:09 43.54330 77.04864 10516 ft 305 kts 275°
2026-05-05 09:09 43.54482 77.01850 10635 ft 326 kts 272°
2026-05-05 09:09 43.54516 76.98638 10759 ft 345 kts 264°
2026-05-05 09:10 43.54058 76.95343 11078 ft 355 kts 252°
2026-05-05 09:10 43.53100 76.92193 11578 ft 359 kts 240°
2026-05-05 09:10 43.51750 76.89289 12126 ft 362 kts 234°
2026-05-05 09:10 43.50332 76.86402 12684 ft 365 kts 234°
2026-05-05 09:11 43.48901 76.83485 13238 ft 369 kts 234°
2026-05-05 09:11 43.47455 76.80541 13808 ft 373 kts 234°
2026-05-05 09:11 43.46135 76.77860 14251 ft 376 kts 234°
2026-05-05 09:11 43.46127 76.77843 14253 ft 376 kts 234°
2026-05-05 09:12 43.44674 76.74898 14748 ft 379 kts 234°
2026-05-05 09:12 43.43184 76.71882 15243 ft 383 kts 234°
2026-05-05 09:12 43.41681 76.68845 15744 ft 386 kts 234°
2026-05-05 09:12 43.40164 76.65781 16239 ft 389 kts 234°
2026-05-05 09:13 43.38657 76.62740 16718 ft 392 kts 234°
2026-05-05 09:13 43.37113 76.59630 17230 ft 395 kts 234°
2026-05-05 09:13 43.35555 76.56496 17743 ft 399 kts 234°
2026-05-05 09:13 43.33982 76.53335 18251 ft 402 kts 234°
2026-05-05 09:14 43.32397 76.50159 18708 ft 404 kts 234°
2026-05-05 09:14 43.30803 76.46969 19174 ft 406 kts 234°
2026-05-05 09:14 43.29292 76.43694 19628 ft 408 kts 242°
2026-05-05 09:14 43.28199 76.40097 20085 ft 410 kts 252°
2026-05-05 09:15 43.27604 76.36269 20533 ft 411 kts 264°
2026-05-05 09:15 43.27498 76.33033 20875 ft 413 kts 271°
2026-05-05 09:15 43.27516 76.29089 21045 ft 412 kts 270°
2026-05-05 09:15 43.27518 76.25174 21080 ft 410 kts 270°
2026-05-05 09:16 43.27511 76.21269 21079 ft 409 kts 270°
2026-05-05 09:16 43.27498 76.17369 21083 ft 409 kts 270°
2026-05-05 09:16 43.27481 76.13467 21075 ft 409 kts 270°
2026-05-05 09:16 43.27462 76.09622 21074 ft 408 kts 270°
2026-05-05 09:17 43.27446 76.05730 21078 ft 408 kts 270°
2026-05-05 09:17 43.27576 76.01842 21084 ft 408 kts 278°
2026-05-05 09:17 43.28177 75.98049 21076 ft 407 kts 287°
2026-05-05 09:17 43.28992 75.94324 21075 ft 408 kts 287°
2026-05-05 09:18 43.29800 75.90599 21072 ft 407 kts 287°
2026-05-05 09:18 43.30592 75.86910 20830 ft 397 kts 287°
2026-05-05 09:18 43.31357 75.83324 20582 ft 386 kts 287°
2026-05-05 09:18 43.31875 75.80891 20412 ft 380 kts 286°
2026-05-05 09:19 43.32140 75.79643 20322 ft 378 kts 286°
2026-05-05 09:19 43.32873 75.76185 20071 ft 377 kts 286°
2026-05-05 09:19 43.33608 75.72736 19823 ft 376 kts 287°
2026-05-05 09:19 43.34342 75.69297 19579 ft 372 kts 286°
2026-05-05 09:20 43.35065 75.65904 19172 ft 368 kts 286°
2026-05-05 09:20 43.35779 75.62534 18726 ft 366 kts 286°
2026-05-05 09:20 43.36486 75.59183 18289 ft 364 kts 286°
2026-05-05 09:20 43.37187 75.55861 17797 ft 361 kts 286°
2026-05-05 09:21 43.37870 75.52564 17359 ft 357 kts 285°
2026-05-05 09:21 43.38504 75.49288 16922 ft 353 kts 284°
2026-05-05 09:21 43.39100 75.46065 16493 ft 350 kts 284°
2026-05-05 09:21 43.39685 75.42834 16054 ft 347 kts 284°
2026-05-05 09:22 43.40263 75.39629 15622 ft 344 kts 284°
2026-05-05 09:22 43.40839 75.36456 15196 ft 341 kts 284°
2026-05-05 09:22 43.41416 75.33305 14770 ft 339 kts 284°
2026-05-05 09:22 43.41993 75.30174 14342 ft 336 kts 284°
2026-05-05 09:23 43.42522 75.27051 13917 ft 334 kts 277°
2026-05-05 09:23 43.42570 75.23886 13467 ft 330 kts 263°
2026-05-05 09:23 43.42041 75.20849 13054 ft 325 kts 248°
2026-05-05 09:23 43.40991 75.18123 12625 ft 321 kts 233°
2026-05-05 09:24 43.39558 75.15790 12214 ft 317 kts 227°
2026-05-05 09:24 43.38098 75.13535 11803 ft 314 kts 230°
2026-05-05 09:24 43.36893 75.11094 11418 ft 312 kts 242°
2026-05-05 09:24 43.36015 75.08382 11036 ft 309 kts 247°
2026-05-05 09:25 43.35182 75.05674 10667 ft 307 kts 246°
2026-05-05 09:25 43.34345 75.02987 10318 ft 303 kts 246°
2026-05-05 09:25 43.33519 75.00354 10078 ft 296 kts 246°
2026-05-05 09:25 43.32708 74.97776 9926 ft 294 kts 246°
2026-05-05 09:26 43.31898 74.95202 9760 ft 294 kts 246°
2026-05-05 09:26 43.31089 74.92634 9406 ft 292 kts 246°
2026-05-05 09:26 43.30285 74.90078 9036 ft 291 kts 246°
2026-05-05 09:26 43.29486 74.87534 8664 ft 290 kts 246°
2026-05-05 09:27 43.28611 74.85054 8285 ft 288 kts 237°
2026-05-05 09:27 43.27348 74.82944 7909 ft 286 kts 222°
2026-05-05 09:27 43.25777 74.81280 7538 ft 285 kts 215°
2026-05-05 09:27 43.24176 74.79692 7170 ft 284 kts 216°
2026-05-05 09:28 43.22579 74.78103 6804 ft 283 kts 216°
2026-05-05 09:28 43.21009 74.76540 6436 ft 282 kts 216°
2026-05-05 09:28 43.19427 74.74965 6047 ft 278 kts 216°
2026-05-05 09:28 43.17879 74.73427 5654 ft 272 kts 216°
2026-05-05 09:29 43.16367 74.71926 5299 ft 265 kts 216°
2026-05-05 09:29 43.14892 74.70460 4953 ft 259 kts 217°
2026-05-05 09:29 43.13456 74.69033 4628 ft 249 kts 216°
2026-05-05 09:29 43.12069 74.67658 4296 ft 245 kts 217°
2026-05-05 09:30 43.10720 74.66319 3967 ft 233 kts 217°
2026-05-05 09:30 43.09421 74.65021 3683 ft 230 kts 220°
2026-05-05 09:30 43.08392 74.63384 3441 ft 225 kts 242°
2026-05-05 09:30 43.07887 74.61475 3406 ft 200 kts 260°
2026-05-05 09:31 43.07663 74.59718 3386 ft 178 kts 261°
2026-05-05 09:31 43.07461 74.58151 3209 ft 164 kts 261°
2026-05-05 09:31 43.07270 74.56655 3017 ft 157 kts 261°
2026-05-05 09:31 43.07083 74.55205 2803 ft 153 kts 260°
2026-05-05 09:32 43.06898 74.53780 2580 ft 152 kts 261°
2026-05-05 09:32 43.06713 74.52370 2394 ft 150 kts 261°
2026-05-05 09:32 43.06537 74.50965 2208 ft 150 kts 261°
2026-05-05 09:32 43.06369 74.49570 2072 ft 143 kts 260°
2026-05-05 09:33 43.06216 74.48443 2070 ft 96 kts 260°
2026-05-05 09:33 43.06130 74.47776 2071 ft 46 kts 260°
2026-05-05 09:33 43.06104 74.47560 2068 ft 9 kts 260°
2026-05-05 09:33 43.06093 74.47471 2068 ft 11 kts 260°
2026-05-05 09:34 43.06079 74.47364 2069 ft 17 kts 259°
2026-05-05 09:34 43.06053 74.47182 2069 ft 23 kts 258°
2026-05-05 09:34 43.06016 74.47106 2069 ft 9 kts 190°
2026-05-05 09:34 43.05954 74.47113 2070 ft 8 kts 170°
2026-05-05 09:35 43.05903 74.47127 2069 ft 8 kts 169°
2026-05-05 09:35 43.05773 74.47159 2069 ft 6 kts 172°
2026-05-05 09:35 43.05728 74.47168 2069 ft 7 kts 172°
2026-05-05 09:36 43.05674 74.47180 2069 ft 9 kts 170°
2026-05-05 09:36 43.05638 74.47185 2069 ft 4 kts 191°
2026-05-05 09:36 43.05615 74.47153 2069 ft 5 kts 240°
2026-05-05 09:36 43.05601 74.47100 2069 ft 4 kts 258°
2026-05-05 09:37 43.05594 74.47053 2069 ft 6 kts 259°
2026-05-05 09:37 43.05586 74.46993 2069 ft 6 kts 259°
2026-05-05 09:37 43.05571 74.46963 2069 ft 3 kts 211°
2026-05-05 09:37 43.05555 74.46956 2069 ft 2 kts 194°
2026-05-05 09:38 43.05536 74.46954 2069 ft 3 kts 178°
2026-05-05 09:38 43.05515 74.46957 2069 ft 3 kts 173°
2026-05-05 09:38 43.05501 74.46960 2069 ft 2 kts 171°
2026-05-05 09:38 43.05495 74.46962 2069 ft 0 kts 169°